Theta_e
307 307 308 308 308 308 308 308 309 309 310 310 312 316 318 315 313 320 317 324 323 323 322 319 327 326 325 322 326 336 337 338 339 341 340 339 345 346 347 352 352 352 351 350 352
306 307 307 308 308 308 308 308 308 309 309 310 313 318 318 314 322 330 318 327 327 325 318 322 324 325 320 321 329 330 337 337 338 338 339 342 344 346 352 354 354 354 356 356 356
306 307 307 307 307 307 307 308 309 308 309 310 313 318 315 319 333 335 332 330 324 319 316 321 325 324 324 324 337 337 338 338 340 340 338 338 342 339 353 354 353 355 360 358 356
306 306 307 307 307 307 307 308 308 309 309 310 313 318 315 328 337 331 319 318 316 317 322 326 325 323 323 324 327 338 334 334 335 333 337 335 339 339 343 345 350 351 356 357 356
305 306 306 306 306 307 307 308 309 309 309 309 313 318 318 324 328 333 319 317 319 323 326 326 324 324 326 324 326 334 333 332 332 331 330 335 340 341 339 351 350 351 351 356 356
304 305 306 306 306 307 308 309 309 309 309 309 313 318 322 320 332 327 320 319 322 326 326 324 323 325 325 324 326 328 326 328 329 331 331 334 337 342 344 351 351 352 352 352 354
304 305 305 306 306 307 308 309 309 309 310 310 313 318 324 314 328 327 322 323 325 325 323 321 322 325 324 325 324 324 329 327 328 329 332 334 341 343 344 352 353 352 352 351 351
303 304 305 306 306 307 308 309 310 310 311 311 315 324 324 324 326 327 326 325 326 326 325 323 323 323 325 323 321 322 321 325 326 328 328 329 329 340 349 353 355 353 353 352 351
302 303 304 305 306 307 308 309 311 313 312 314 324 327 324 325 324 326 328 326 326 326 325 322 322 320 320 321 319 318 322 322 322 325 330 328 327 338 348 352 354 354 353 353 352
301 302 303 304 305 307 309 311 320 323 322 326 325 316 319 324 324 323 327 328 325 321 320 321 317 319 317 318 320 322 322 321 324 329 331 327 326 341 347 351 353 352 353 352 353
301 301 303 304 305 307 309 316 314 315 318 320 319 315 319 323 324 321 323 325 323 319 319 318 319 320 319 320 321 322 321 320 321 325 330 328 326 326 346 348 351 351 352 353 353
300 301 302 304 305 307 312 314 316 314 313 314 316 320 321 322 324 322 324 325 322 321 321 318 318 318 321 322 322 322 320 319 321 324 326 326 326 326 336 349 352 353 355 353 351
300 301 302 304 306 311 310 315 313 313 313 315 316 316 317 321 322 323 323 323 322 322 321 320 321 323 324 324 323 320 321 321 323 322 322 324 323 323 325 341 346 352 352 352 353
300 301 302 304 310 309 313 314 314 315 312 315 317 316 318 320 321 324 324 325 324 323 321 321 321 323 323 325 321 323 320 325 326 323 323 321 322 322 334 352 355 354 353 352 353
300 301 302 303 306 309 312 314 315 315 310 316 317 318 316 320 321 321 323 323 324 322 321 323 325 326 326 324 322 322 324 325 325 321 321 322 320 322 338 354 357 356 354 353 356
301 302 303 306 306 310 311 315 316 314 314 319 318 317 318 319 320 320 322 323 323 324 323 321 324 326 326 324 322 323 323 320 320 318 322 322 323 325 341 345 348 356 357 360 360
302 304 307 306 307 312 311 311 311 315 315 318 318 317 316 317 319 319 323 322 322 322 322 324 326 327 326 325 323 320 318 320 321 324 326 324 328 326 332 337 351 362 360 349 341
304 308 310 308 306 306 312 312 312 312 315 316 317 316 317 316 317 318 321 322 321 324 323 326 327 328 326 324 324 323 319 320 325 324 325 323 329 332 336 336 355 353 351 336 337
306 312 308 309 309 307 308 311 312 315 319 318 317 318 317 317 318 317 318 320 321 321 322 326 328 327 326 325 323 323 323 320 319 320 323 324 332 332 349 354 352 340 339 337 340
307 314 310 314 307 310 308 310 312 315 316 316 318 318 320 317 316 315 317 320 323 322 320 323 326 325 326 324 322 321 319 321 317 325 327 324 327 334 347 351 342 344 341 341 342
312 312 314 310 311 305 308 308 312 313 314 316 316 317 318 322 316 314 316 319 322 323 320 321 322 324 325 324 324 322 321 317 316 318 321 323 324 325 337 339 340 341 343 344 343
307 314 313 309 306 302 307 310 311 312 311 313 313 314 317 319 322 325 316 318 322 321 322 320 319 323 324 325 323 323 322 318 321 325 321 321 324 331 331 333 334 335 344 341 344
305 309 313 311 309 306 306 310 312 312 311 312 314 316 317 318 322 323 322 322 322 321 321 320 320 323 324 322 323 326 325 320 316 316 321 323 324 332 333 335 336 340 343 341 344
309 319 309 305 303 308 311 310 313 316 313 312 313 314 316 320 320 322 322 323 321 328 337 324 317 322 324 324 325 327 327 324 320 322 322 322 325 335 336 338 341 337 335 337 340
309 314 310 314 311 311 309 310 312 313 316 314 315 316 317 320 321 326 328 327 326 330 320 320 326 325 323 326 326 328 329 328 327 325 328 327 327 328 335 337 339 334 334 337 336
308 307 306 308 311 313 311 311 312 311 314 317 315 323 323 326 325 326 325 326 330 326 320 317 325 324 325 329 329 329 327 328 332 338 330 334 335 332 334 335 339 336 339 342 342
307 308 307 310 311 311 312 312 314 316 317 325 325 324 325 325 323 323 321 319 323 327 331 329 320 319 321 330 327 323 330 334 342 342 340 331 332 335 335 336 337 337 337 337 340
Wind_Speed
13 14 14 14 13 15 16 16 17 18 19 20 21 20 19 18 17 6 5 3 2 8 11 12 6 17 3 3 2 3 3 3 6 3 1 1 3 5 5 9 3 5 5 15 27
15 14 15 16 15 16 17 18 17 19 20 20 21 21 19 20 8 7 4 5 5 8 5 7 6 10 4 4 4 4 3 3 1 2 3 7 4 8 5 5 3 8 16 29 29
15 16 16 16 17 18 19 18 18 19 20 20 21 21 21 12 3 4 3 5 5 3 1 4 5 1 3 2 1 1 4 3 6 6 2 4 3 2 10 3 6 17 18 20 24
17 17 17 18 19 19 20 19 18 18 19 20 19 20 17 4 2 3 2 2 1 2 2 2 4 4 4 6 2 2 8 4 6 2 5 9 6 5 7 5 12 19 21 17 18
17 17 18 20 21 22 21 20 18 18 18 18 18 18 6 3 6 3 2 2 3 2 2 2 3 2 2 3 4 5 6 7 13 4 7 5 11 6 5 11 17 19 19 19 16
19 19 19 21 22 23 22 20 19 18 18 17 15 14 4 3 2 3 3 3 2 0 1 3 2 3 1 4 1 5 8 8 4 3 2 6 4 7 4 15 18 19 18 16 17
21 20 20 21 23 24 24 22 21 19 18 14 11 8 1 9 3 5 4 4 3 3 3 2 3 3 1 5 1 4 4 6 4 0 1 7 2 4 10 17 19 18 16 15 14
21 21 22 22 24 26 25 23 22 21 15 9 9 1 6 2 4 9 6 7 6 10 10 10 4 3 2 4 7 4 5 4 7 3 4 7 9 3 14 18 17 17 15 14 11
21 22 23 24 24 27 25 23 23 15 8 5 1 2 8 6 5 13 11 5 6 10 6 10 5 3 6 3 6 7 2 4 9 4 4 3 6 5 13 15 15 15 14 14 10
22 23 23 24 24 26 24 22 5 4 3 1 0 2 6 1 4 8 15 11 3 5 6 5 5 3 4 5 3 4 4 5 6 5 2 4 5 5 15 15 17 14 11 11 10
22 24 24 24 23 22 24 5 6 4 2 5 2 4 5 10 5 6 11 5 2 7 2 4 5 3 5 5 4 3 4 6 5 5 5 2 3 5 13 8 8 10 9 9 12
22 23 24 25 22 18 9 4 5 4 8 7 9 7 14 4 4 3 9 4 2 2 2 6 4 8 4 5 6 6 5 6 5 3 0 2 7 2 10 20 19 16 11 12 7
21 23 24 24 18 5 9 2 19 5 2 8 6 6 5 11 7 7 9 5 3 3 3 5 6 3 3 4 5 3 3 3 5 6 6 5 8 4 4 3 5 1 8 10 14
21 22 23 24 3 13 4 17 16 4 5 7 5 8 6 6 5 10 11 6 2 6 6 5 5 4 5 6 7 3 5 2 2 4 2 4 4 6 7 3 6 9 11 11 10
21 21 20 18 14 5 9 16 8 3 3 3 4 2 2 10 3 3 8 4 7 4 5 6 2 7 4 6 5 8 3 2 3 4 2 3 4 7 4 2 5 11 15 13 13
21 21 20 9 10 8 15 10 2 5 6 6 4 4 5 2 2 3 4 4 3 3 3 7 3 5 6 4 4 3 4 7 5 3 3 5 3 5 2 4 6 3 7 9 8
23 20 18 11 3 4 16 3 5 3 5 5 1 1 3 6 4 3 5 4 6 4 2 5 4 4 4 1 3 7 7 4 4 5 5 1 3 7 7 5 4 9 11 14 7
23 17 12 14 5 5 4 5 3 5 6 5 4 0 6 3 3 5 5 4 2 4 3 3 6 2 1 4 6 3 7 5 4 2 5 4 1 6 3 6 8 9 14 9 5
19 9 6 5 12 6 5 3 7 6 4 6 8 0 3 4 2 4 7 7 8 7 7 5 5 3 3 4 7 3 2 4 7 3 3 3 4 5 6 7 7 4 4 10 7
14 6 4 2 14 7 4 6 5 4 5 4 2 2 1 5 7 7 8 5 5 9 5 6 2 3 5 4 4 7 7 3 3 2 2 4 3 4 2 2 3 5 4 5 4
4 3 3 11 8 5 4 6 4 6 4 1 2 3 4 2 7 6 7 4 9 7 6 5 4 6 3 1 7 2 2 7 5 4 5 1 6 6 10 9 8 6 3 2 3
4 3 3 16 3 1 2 4 3 4 3 4 2 5 4 2 2 1 7 9 6 9 10 8 5 4 9 1 3 3 4 5 5 3 2 4 6 4 5 7 8 8 8 4 2
2 2 4 4 2 2 5 5 3 3 5 3 3 2 3 3 1 3 2 3 3 9 10 8 1 2 9 7 4 7 3 6 5 3 3 4 5 2 4 6 8 7 8 9 5
1 2 4 3 1 5 1 5 4 4 6 5 5 3 4 3 4 2 5 3 6 4 9 9 4 7 7 7 4 4 4 4 5 3 4 5 4 5 8 7 6 6 6 2 0
3 0 2 2 2 2 3 3 3 4 3 6 2 4 4 1 3 5 4 6 5 7 4 5 5 3 3 5 4 3 3 4 4 4 4 3 5 5 10 8 7 6 8 5 9
2 3 4 2 4 4 5 3 7 7 5 4 3 3 4 5 4 1 1 5 2 6 4 3 2 3 3 3 5 3 4 4 4 2 1 1 2 6 2 1 3 3 6 7 11
5 3 2 3 5 3 1 4 6 4 3 3 3 5 5 5 6 5 2 2 1 1 3 3 5 3 3 2 4 4 2 3 5 4 2 1 5 4 2 4 7 6 6 9 10
Wind_Direction
6 4 359 357 360 355 353 351 352 346 345 342 342 339 336 329 323 300 255 235 282 324 330 329 359 346 359 5 51 118 68 168 166 161 182 31 143 166 74 130 180 188 135 137 156
4 357 354 353 354 351 351 348 349 345 343 341 341 340 336 330 327 258 234 251 292 308 334 16 348 345 0 349 352 80 79 270 196 156 157 155 210 136 114 163 24 89 99 126 142
359 354 351 349 349 347 345 344 345 344 340 340 342 340 335 337 331 263 292 268 282 282 340 328 303 102 16 335 257 20 205 214 260 213 260 154 179 109 131 216 212 150 143 142 151
356 351 348 345 342 342 341 340 340 338 339 336 339 339 334 352 170 280 298 240 184 74 32 3 352 11 46 350 339 307 270 214 279 258 153 200 160 169 190 200 149 153 149 150 159
354 349 344 341 339 338 336 333 334 333 334 332 336 340 348 336 257 276 214 199 137 64 15 20 38 81 9 283 312 202 259 270 247 178 244 153 197 191 196 133 139 149 152 163 169
351 345 341 338 337 334 330 328 326 326 326 326 331 339 353 303 285 269 218 199 217 274 256 167 259 256 160 278 327 301 279 280 271 279 168 166 230 140 133 139 143 161 167 173 175
349 344 338 337 334 331 325 324 322 320 318 315 323 335 28 239 264 238 234 258 262 255 306 283 333 60 319 316 300 281 289 333 299 330 61 120 15 227 157 156 156 172 178 185 188
345 341 337 336 332 327 323 322 319 313 309 301 317 2 249 281 260 226 237 265 280 295 275 290 325 118 172 301 358 25 43 4 288 16 282 132 253 178 167 158 170 179 185 189 194
344 340 337 333 329 325 322 323 316 309 292 290 104 67 272 300 226 231 229 262 308 312 292 307 45 55 18 57 8 8 323 310 309 232 176 151 244 186 178 171 177 184 188 192 196
344 339 336 332 328 325 325 324 346 37 77 79 135 9 272 226 250 225 224 239 278 325 8 40 53 52 39 64 211 278 328 287 264 304 52 177 234 166 186 180 188 186 187 191 190
341 339 334 330 329 328 333 354 14 352 15 226 215 268 272 320 270 217 190 172 122 52 63 357 50 235 225 209 215 266 231 243 260 292 205 229 279 170 191 208 200 190 179 183 196
339 336 331 329 328 323 341 55 54 312 304 249 242 254 262 263 321 283 168 146 114 202 74 15 251 242 228 223 240 240 255 298 291 334 289 52 287 89 178 210 199 190 169 177 137
336 334 332 330 323 313 320 46 337 3 201 292 219 215 216 149 208 243 148 164 150 165 172 167 240 347 200 284 293 233 222 275 229 345 13 28 322 348 293 281 196 155 153 170 164
334 332 334 336 336 332 299 334 346 103 39 274 244 257 178 146 269 209 178 142 189 210 184 224 274 265 242 247 162 276 191 228 57 71 263 61 265 312 337 3 106 142 157 169 160
330 329 329 331 307 298 325 335 2 89 339 250 219 353 232 152 201 215 172 79 187 199 90 252 311 358 315 222 149 225 133 31 99 97 53 347 75 271 8 358 183 176 178 178 170
326 324 319 319 302 278 334 336 38 48 251 319 184 165 114 164 263 55 112 99 159 174 229 239 262 232 220 254 172 96 79 45 55 62 31 288 117 300 282 321 317 70 55 75 41
325 319 301 278 252 282 334 36 54 151 332 300 333 33 202 175 211 150 140 163 170 135 305 329 264 270 216 322 33 75 54 1 360 8 216 350 32 235 321 332 117 106 97 73 52
327 315 288 264 249 280 345 55 158 231 255 298 316 345 178 148 242 158 141 203 266 98 91 119 322 197 23 168 185 86 138 148 192 220 266 325 345 281 297 214 102 131 117 139 89
330 314 278 273 211 213 77 95 206 212 297 348 328 0 240 229 160 145 187 200 204 163 168 161 267 314 262 193 137 184 107 177 102 23 44 274 285 17 47 52 117 109 41 134 144
332 320 271 212 165 136 82 223 230 229 327 20 18 343 320 269 160 156 181 210 213 184 164 201 290 254 295 96 59 153 156 74 23 165 264 312 270 210 175 154 112 130 226 231 197
347 33 350 151 143 52 168 230 279 261 335 359 274 289 271 276 189 181 199 272 203 180 129 135 108 282 15 310 167 67 74 49 113 123 158 157 277 217 189 186 180 161 188 338 303
357 56 134 153 59 24 178 212 285 304 355 308 253 239 257 294 315 166 212 221 204 152 161 198 154 227 236 284 292 127 139 127 120 234 101 138 273 246 246 202 180 184 183 212 138
51 271 161 347 127 293 292 287 265 270 243 259 285 273 291 278 250 233 234 255 354 162 167 174 235 312 340 354 6 83 75 109 118 85 177 123 264 18 294 227 217 203 194 216 204
71 58 333 51 135 146 357 274 251 248 242 207 240 282 273 350 30 306 335 351 353 70 74 100 118 164 202 202 182 126 90 72 108 98 180 220 259 220 230 236 259 226 218 176 48
27 338 172 305 312 280 185 270 305 312 272 197 244 228 220 34 15 359 321 346 348 14 70 107 124 150 147 163 144 117 97 154 157 170 142 247 215 280 214 211 241 305 353 41 152
64 27 356 281 309 308 171 265 226 260 229 293 204 161 134 145 195 164 294 20 347 334 46 351 137 113 44 78 115 123 34 88 90 110 173 112 232 257 203 147 251 325 334 317 302
2 16 116 292 343 30 256 286 274 323 227 220 228 116 116 188 189 228 219 135 26 339 26 43 119 95 174 315 114 25 13 103 94 51 135 280 226 257 108 162 223 218 251 279 293